This is the latest recevied weather packets stored in our database for station/object N3OZD-10. If no packets are shown the sender has not sent any weather packets the latest 10 day(s).
| Time | Temp. | Humidity | Pressure | Rain* | Wind** | Luminosity | Snow |
|---|---|---|---|---|---|---|---|
| 1777871847 | 6.67° C | 74% | 1015.5 hPa | 1.27 mm | - | - | - |
| 1777871549 | 6.11° C | 76% | 1015.5 hPa | 1.27 mm | - | - | - |
| 1777871247 | 6.11° C | 77% | 1015.5 hPa | 1.27 mm | - | - | - |
| 1777870947 | 6.67° C | 76% | 1015.4 hPa | 1.02 mm | - | - | - |
| 1777870839 | 6.11° C | 75% | 1015.6 hPa | 1.02 mm | - | - | - |
| 1777870647 | 6.11° C | 75% | 1015.6 hPa | 1.02 mm | - | - | - |
| 1777870347 | 6.67° C | 74% | 1015.6 hPa | 0.76 mm | - | - | - |
| 1777870214 | 6.67° C | 73% | 1015.5 hPa | 0.76 mm | - | - | - |
| 1777870048 | 6.67° C | 73% | 1015.6 hPa | 0.76 mm | - | - | - |
| 1777869747 | 6.67° C | 73% | 1015.5 hPa | 0.76 mm | - | - | - |
| 1777869448 | 6.67° C | 71% | 1015.5 hPa | 0.51 mm | - | - | - |
| 1777869147 | 7.22° C | 70% | 1015.5 hPa | 0.25 mm | - | - | - |
| 1777868848 | 7.22° C | 70% | 1015.5 hPa | 0 mm | - | - | - |
| 1777868547 | 7.22° C | 67% | 1015.4 hPa | 0.25 mm | - | - | - |
| 1777868247 | 7.22° C | 68% | 1015.3 hPa | 0.76 mm | - | - | - |
| 1777867948 | 7.22° C | 68% | 1015.2 hPa | 0.76 mm | - | - | - |
| 1777867647 | 7.22° C | 68% | 1015 hPa | 0.76 mm | - | - | - |
| 1777867347 | 7.22° C | 68% | 1015.2 hPa | 0.76 mm | - | - | - |
| 1777867049 | 7.22° C | 70% | 1015.2 hPa | 0.76 mm | - | - | - |
| 1777866747 | 7.22° C | 69% | 1015.2 hPa | 0.76 mm | - | - | - |
| 1777866448 | 7.22° C | 67% | 1015.2 hPa | 0.76 mm | - | - | - |
| 1777866147 | 7.22° C | 67% | 1015.1 hPa | 0.76 mm | - | - | - |
| 1777865847 | 7.78° C | 68% | 1015.1 hPa | 0.76 mm | - | - | - |
| 1777865547 | 7.78° C | 67% | 1015 hPa | 0.76 mm | - | - | - |
| 1777865248 | 7.78° C | 67% | 1015 hPa | 0.76 mm | - | - | - |
* Rain latest hour (hover to see other rain measurements)
** Current wind speed in m/s (hover to see current wind gust speed)